| time (UTC) | temp F | wind direction | speed MPH | gust MPH | rain 1hr in | rain 24hr in | rain mn in | humidity % | barometer mb |
| 20260508005220 | 69 | 224 | 13.0 | 17.0 | 0.00 | 0.00 | 0.00 | 35 | 1026.6 |
| 20260508004221 | 69 | 221 | 13.0 | 18.0 | 0.00 | 0.00 | 0.00 | 36 | 1026.6 |
| 20260508003221 | 68 | 223 | 13.0 | 18.0 | 0.00 | 0.00 | 0.00 | 35 | 1026.6 |
| 20260508002221 | 68 | 226 | 14.0 | 23.0 | 0.00 | 0.00 | 0.00 | 36 | 1026.6 |
| 20260508001320 | 68 | 223 | 14.0 | 18.0 | 0.00 | 0.00 | 0.00 | 35 | 1026.5 |
| 20260508000322 | 68 | 225 | 16.0 | 22.0 | 0.00 | 0.00 | 0.00 | 35 | 1026.5 |
| 20260507235419 | 68 | 225 | 15.0 | 22.0 | 0.00 | 0.00 | 0.00 | 37 | 1026.5 |
| 20260507235320 | 68 | 217 | 14.0 | 20.0 | 0.00 | 0.00 | 0.00 | 37 | 1026.6 |
| 20260507234418 | 68 | 226 | 17.0 | 22.0 | 0.00 | 0.00 | 0.00 | 37 | 1026.7 |
| 20260507233421 | 68 | 220 | 13.0 | 19.0 | 0.00 | 0.00 | 0.00 | 37 | 1026.6 |
| 20260507232420 | 68 | 226 | 12.0 | 15.0 | 0.00 | 0.00 | 0.00 | 37 | 1026.7 |
| 20260507231420 | 68 | 223 | 15.0 | 20.0 | 0.00 | 0.00 | 0.00 | 37 | 1026.8 |
| 20260507230420 | 67 | 225 | 16.0 | 19.0 | 0.00 | 0.00 | 0.00 | 37 | 1027.0 |
| 20260507224519 | 67 | 223 | 13.0 | 16.0 | 0.00 | 0.00 | 0.00 | 39 | 1027.2 |
| 20260507222520 | 67 | 214 | 12.0 | 18.0 | 0.00 | 0.00 | 0.00 | 41 | 1027.3 |
| 20260507221521 | 66 | 226 | 14.0 | 20.0 | 0.00 | 0.00 | 0.00 | 42 | 1027.4 |
| 20260507220522 | 66 | 221 | 15.0 | 20.0 | 0.00 | 0.00 | 0.00 | 42 | 1027.5 |
| 20260507215521 | 66 | 223 | 13.0 | 17.0 | 0.00 | 0.00 | 0.00 | 43 | 1027.6 |
| 20260507214619 | 65 | 217 | 16.0 | 20.0 | 0.00 | 0.00 | 0.00 | 46 | 1027.9 |
| 20260507214519 | 65 | 222 | 16.0 | 22.0 | 0.00 | 0.00 | 0.00 | 47 | 1027.8 |
| 20260507213520 | 65 | 226 | 15.0 | 22.0 | 0.00 | 0.00 | 0.00 | 48 | 1028.0 |
| 20260507211619 | 65 | 225 | 17.0 | 21.0 | 0.00 | 0.00 | 0.00 | 51 | 1028.0 |
| 20260507210620 | 64 | 225 | 15.0 | 19.0 | 0.00 | 0.00 | 0.00 | 52 | 1028.1 |
| 20260507205719 | 64 | 227 | 13.0 | 17.0 | 0.00 | 0.00 | 0.00 | 54 | 1028.3 |
| 20260507204720 | 64 | 230 | 15.0 | 21.0 | 0.00 | 0.00 | 0.00 | 54 | 1028.4 |
| 20260507203721 | 63 | 230 | 18.0 | 22.0 | 0.00 | 0.00 | 0.00 | 55 | 1028.5 |
| 20260507202721 | 63 | 224 | 15.0 | 20.0 | 0.00 | 0.00 | 0.00 | 56 | 1028.6 |
| 20260507201720 | 63 | 225 | 15.0 | 21.0 | 0.00 | 0.00 | 0.00 | 57 | 1028.8 |
| 20260507200720 | 63 | 227 | 12.0 | 18.0 | 0.00 | 0.00 | 0.00 | 57 | 1028.8 |
| 20260507195719 | 62 | 225 | 14.0 | 17.0 | 0.00 | 0.00 | 0.00 | 58 | 1028.9 |
| 20260507194720 | 62 | 228 | 12.0 | 15.0 | 0.00 | 0.00 | 0.00 | 57 | 1029.0 |
| 20260507193721 | 62 | 226 | 11.0 | 16.0 | 0.00 | 0.00 | 0.00 | 58 | 1029.1 |
| 20260507193620 | 62 | 231 | 12.0 | 16.0 | 0.00 | 0.00 | 0.00 | 58 | 1029.1 |
| 20260507185720 | 60 | 221 | 13.0 | 17.0 | 0.00 | 0.00 | 0.00 | 61 | 1029.7 |
| 20260507184720 | 60 | 227 | 10.0 | 13.0 | 0.00 | 0.00 | 0.00 | 61 | 1029.9 |
| 20260507183720 | 60 | 228 | 14.0 | 18.0 | 0.00 | 0.00 | 0.00 | 62 | 1029.9 |
| 20260507182819 | 60 | 225 | 15.0 | 19.0 | 0.00 | 0.00 | 0.00 | 62 | 1030.0 |
| 20260507181822 | 59 | 223 | 12.0 | 16.0 | 0.00 | 0.00 | 0.00 | 61 | 1030.2 |
| 20260507180820 | 59 | 229 | 13.0 | 18.0 | 0.00 | 0.00 | 0.00 | 63 | 1030.3 |
| 20260507174919 | 58 | 219 | 11.0 | 15.0 | 0.00 | 0.00 | 0.00 | 64 | 1030.5 |
| 20260507174820 | 58 | 223 | 12.0 | 15.0 | 0.00 | 0.00 | 0.00 | 64 | 1030.5 |
| 20260507173820 | 58 | 227 | 13.0 | 16.0 | 0.00 | 0.00 | 0.00 | 65 | 1030.6 |
| 20260507172819 | 58 | 215 | 12.0 | 17.0 | 0.00 | 0.00 | 0.00 | 65 | 1030.6 |
| 20260507171821 | 57 | 233 | 14.0 | 17.0 | 0.00 | 0.00 | 0.00 | 66 | 1030.8 |
| 20260507170919 | 57 | 216 | 10.0 | 15.0 | 0.00 | 0.00 | 0.00 | 66 | 1030.9 |
| 20260507165921 | 57 | 226 | 12.0 | 17.0 | 0.00 | 0.00 | 0.00 | 68 | 1030.8 |
| 20260507165819 | 57 | 226 | 11.0 | 18.0 | 0.00 | 0.00 | 0.00 | 69 | 1030.8 |
| 20260507163920 | 55 | 223 | 8.0 | 11.0 | 0.00 | 0.00 | 0.00 | 70 | 1030.9 |
| 20260507162922 | 55 | 225 | 13.0 | 18.0 | 0.00 | 0.00 | 0.00 | 70 | 1031.0 |
| 20260507162019 | 55 | 226 | 11.0 | 16.0 | 0.00 | 0.00 | 0.00 | 71 | 1030.9 |
| 20260507161020 | 55 | 228 | 14.0 | 20.0 | 0.00 | 0.00 | 0.00 | 71 | 1030.9 |
| 20260507154020 | 54 | 225 | 15.0 | 22.0 | 0.00 | 0.00 | 0.00 | 73 | 1031.1 |
| 20260507153021 | 54 | 225 | 14.0 | 20.0 | 0.00 | 0.00 | 0.00 | 73 | 1031.1 |
| 20260507151119 | 54 | 224 | 9.0 | 14.0 | 0.00 | 0.00 | 0.00 | 75 | 1031.2 |
| 20260507145219 | 53 | 224 | 11.0 | 16.0 | 0.00 | 0.00 | 0.00 | 76 | 1031.1 |
| 20260507143219 | 53 | 225 | 10.0 | 14.0 | 0.00 | 0.00 | 0.00 | 77 | 1031.0 |
| 20260507143119 | 53 | 228 | 10.0 | 13.0 | 0.00 | 0.00 | 0.00 | 77 | 1031.1 |
| 20260507142121 | 52 | 225 | 10.0 | 14.0 | 0.00 | 0.00 | 0.00 | 78 | 1031.0 |
| 20260507141119 | 52 | 222 | 10.0 | 13.0 | 0.00 | 0.00 | 0.00 | 78 | 1030.9 |
| 20260507140119 | 52 | 225 | 14.0 | 20.0 | 0.00 | 0.00 | 0.00 | 77 | 1030.8 |
| 20260507135219 | 52 | 224 | 14.0 | 18.0 | 0.00 | 0.00 | 0.00 | 77 | 1030.8 |
| 20260507134219 | 52 | 221 | 11.0 | 16.0 | 0.00 | 0.00 | 0.00 | 77 | 1030.6 |
| 20260507133221 | 52 | 222 | 11.0 | 14.0 | 0.00 | 0.00 | 0.00 | 78 | 1030.7 |
| 20260507132320 | 53 | 225 | 12.0 | 18.0 | 0.00 | 0.00 | 0.00 | 78 | 1030.6 |
| 20260507131419 | 53 | 226 | 12.0 | 18.0 | 0.00 | 0.00 | 0.00 | 78 | 1030.6 |
| 20260507125421 | 53 | 228 | 13.0 | 17.0 | 0.00 | 0.00 | 0.00 | 79 | 1030.6 |
| 20260507123421 | 53 | 225 | 12.0 | 17.0 | 0.00 | 0.00 | 0.00 | 79 | 1030.5 |
| 20260507122519 | 53 | 228 | 12.0 | 17.0 | 0.00 | 0.00 | 0.00 | 79 | 1030.5 |
| 20260507121520 | 53 | 224 | 12.0 | 14.0 | 0.00 | 0.00 | 0.00 | 79 | 1030.5 |
| 20260507120523 | 53 | 228 | 15.0 | 18.0 | 0.00 | 0.00 | 0.00 | 79 | 1030.5 |
| 20260507115521 | 53 | 225 | 12.0 | 16.0 | 0.00 | 0.00 | 0.00 | 79 | 1030.6 |
| 20260507114619 | 53 | 226 | 12.0 | 15.0 | 0.00 | 0.00 | 0.00 | 79 | 1030.5 |
| 20260507113620 | 53 | 206 | 15.0 | 19.0 | 0.00 | 0.00 | 0.00 | 80 | 1030.4 |
| 20260507111719 | 54 | 215 | 12.0 | 14.0 | 0.00 | 0.00 | 0.00 | 78 | 1030.4 |
| 20260507110722 | 54 | 219 | 12.0 | 20.0 | 0.00 | 0.00 | 0.00 | 79 | 1030.5 |
| 20260507105728 | 54 | 211 | 15.0 | 21.0 | 0.00 | 0.00 | 0.00 | 79 | 1030.6 |
| 20260507104821 | 54 | 215 | 12.0 | 15.0 | 0.00 | 0.00 | 0.00 | 79 | 1030.6 |
| 20260507104721 | 54 | 219 | 11.0 | 16.0 | 0.00 | 0.00 | 0.00 | 79 | 1030.6 |
| 20260507103819 | 54 | 222 | 11.0 | 15.0 | 0.00 | 0.00 | 0.00 | 79 | 1030.6 |
| 20260507100819 | 54 | 222 | 14.0 | 18.0 | 0.00 | 0.00 | 0.00 | 79 | 1030.6 |
| 20260507095822 | 54 | 224 | 15.0 | 20.0 | 0.00 | 0.00 | 0.00 | 79 | 1030.5 |
| 20260507093820 | 54 | 222 | 17.0 | 23.0 | 0.00 | 0.00 | 0.00 | 78 | 1030.6 |
| 20260507092822 | 55 | 215 | 14.0 | 20.0 | 0.00 | 0.00 | 0.00 | 78 | 1030.6 |
| 20260507091821 | 55 | 226 | 14.0 | 21.0 | 0.00 | 0.00 | 0.00 | 78 | 1030.8 |
| 20260507090919 | 55 | 228 | 12.0 | 16.0 | 0.00 | 0.00 | 0.00 | 76 | 1030.6 |
| 20260507085922 | 55 | 226 | 18.0 | 27.0 | 0.00 | 0.00 | 0.00 | 77 | 1030.6 |
| 20260507084921 | 55 | 230 | 15.0 | 24.0 | 0.00 | 0.00 | 0.00 | 77 | 1030.6 |
| 20260507083921 | 55 | 232 | 15.0 | 20.0 | 0.00 | 0.00 | 0.00 | 77 | 1030.6 |
| 20260507082920 | 55 | 226 | 18.0 | 26.0 | 0.00 | 0.00 | 0.00 | 77 | 1030.3 |
| 20260507081921 | 55 | 229 | 17.0 | 25.0 | 0.00 | 0.00 | 0.00 | 76 | 1030.6 |
| 20260507080918 | 55 | 224 | 19.0 | 27.0 | 0.00 | 0.00 | 0.00 | 75 | 1030.7 |
| 20260507075019 | 56 | 224 | 18.0 | 22.0 | 0.00 | 0.00 | 0.00 | 76 | 1030.7 |
| 20260507074020 | 56 | 226 | 14.0 | 19.0 | 0.00 | 0.00 | 0.00 | 76 | 1030.6 |
| 20260507073118 | 56 | 226 | 14.0 | 19.0 | 0.00 | 0.00 | 0.00 | 75 | 1030.8 |
| 20260507072119 | 56 | 224 | 14.0 | 18.0 | 0.00 | 0.00 | 0.00 | 76 | 1030.8 |
| 20260507070121 | 57 | 226 | 19.0 | 25.0 | 0.00 | 0.00 | 0.00 | 75 | 1030.8 |
| 20260507065216 | 57 | 228 | 16.0 | 22.0 | 0.00 | 0.00 | 0.00 | 74 | 1030.7 |
| 20260507064215 | 57 | 223 | 16.0 | 21.0 | 0.00 | 0.00 | 0.00 | 75 | 1030.8 |
| 20260507063314 | 57 | 227 | 12.0 | 17.0 | 0.00 | 0.00 | 0.00 | 74 | 1030.8 |
| 20260507062316 | 57 | 222 | 17.0 | 21.0 | 0.00 | 0.00 | 0.00 | 75 | 1030.7 |
| 20260507061317 | 58 | 225 | 16.0 | 24.0 | 0.00 | 0.00 | 0.00 | 75 | 1030.7 |
| 20260507055317 | 58 | 224 | 14.0 | 19.0 | 0.00 | 0.00 | 0.00 | 76 | 1030.6 |
| 20260507054315 | 58 | 234 | 14.0 | 18.0 | 0.00 | 0.00 | 0.00 | 75 | 1030.6 |
| 20260507051316 | 59 | 225 | 12.0 | 17.0 | 0.00 | 0.00 | 0.00 | 75 | 1030.8 |
| 20260507050415 | 59 | 226 | 15.0 | 18.0 | 0.00 | 0.00 | 0.00 | 75 | 1030.7 |
| 20260507044418 | 60 | 225 | 17.0 | 24.0 | 0.00 | 0.00 | 0.00 | 74 | 1030.6 |
| 20260507043415 | 60 | 225 | 18.0 | 24.0 | 0.00 | 0.00 | 0.00 | 73 | 1030.4 |
| 20260507042417 | 61 | 224 | 13.0 | 17.0 | 0.00 | 0.00 | 0.00 | 72 | 1030.4 |
| 20260507041515 | 61 | 227 | 14.0 | 19.0 | 0.00 | 0.00 | 0.00 | 72 | 1030.3 |
| 20260507040516 | 61 | 225 | 14.0 | 18.0 | 0.00 | 0.00 | 0.00 | 72 | 1030.2 |
| 20260507035516 | 62 | 227 | 14.0 | 18.0 | 0.00 | 0.00 | 0.00 | 72 | 1030.0 |
| 20260507034614 | 62 | 237 | 14.0 | 20.0 | 0.00 | 0.00 | 0.00 | 71 | 1029.9 |
| 20260507033617 | 63 | 227 | 14.0 | 24.0 | 0.00 | 0.00 | 0.00 | 70 | 1029.9 |
| 20260507032615 | 63 | 226 | 11.0 | 14.0 | 0.00 | 0.00 | 0.00 | 70 | 1029.7 |
| 20260507031616 | 64 | 227 | 10.0 | 13.0 | 0.00 | 0.00 | 0.00 | 71 | 1029.6 |
| 20260507030714 | 64 | 225 | 11.0 | 15.0 | 0.00 | 0.00 | 0.00 | 70 | 1029.7 |
| 20260507025717 | 64 | 229 | 10.0 | 12.0 | 0.00 | 0.00 | 0.00 | 69 | 1029.7 |
| 20260507023715 | 65 | 220 | 9.0 | 12.0 | 0.00 | 0.00 | 0.00 | 68 | 1029.7 |
| 20260507022716 | 65 | 225 | 11.0 | 13.0 | 0.00 | 0.00 | 0.00 | 67 | 1029.7 |
| 20260507021717 | 65 | 225 | 10.0 | 12.0 | 0.00 | 0.00 | 0.00 | 66 | 1029.8 |
| 20260507020715 | 66 | 224 | 9.0 | 12.0 | 0.00 | 0.00 | 0.00 | 64 | 1029.9 |
| 20260507015715 | 66 | 225 | 11.0 | 16.0 | 0.00 | 0.00 | 0.00 | 64 | 1029.9 |
| 20260507014716 | 66 | 226 | 10.0 | 13.0 | 0.00 | 0.00 | 0.00 | 64 | 1029.9 |
| 20260507013715 | 66 | 225 | 13.0 | 16.0 | 0.00 | 0.00 | 0.00 | 63 | 1029.9 |
| 20260507011716 | 66 | 224 | 13.0 | 17.0 | 0.00 | 0.00 | 0.00 | 62 | 1029.7 |
| 20260507010718 | 66 | 227 | 12.0 | 16.0 | 0.00 | 0.00 | 0.00 | 62 | 1029.9 |